UWE-1

导读

UWE-1是由德国维尔茨堡大学研发的1千克级微微型实验卫星,于2005年10月27日发射升空。作为大学生参与的跨学科教育卫星项目,它聚焦空间技术验证,主要完成了空间电信实验任务,验证了微型卫星系统集成与姿态控制方案的可行性,为后续UWE系列微小卫星技术迭代积累了宝贵在轨数据,推动了皮纳卫星技术的工程化实践。

基本信息
目录编号:
28892
目录名称:
UWE-1
国际标识:
2005-043C
轨道中心:
EARTH
卫星名称:
UWE-1
卫星全名:
--
卫星状态:
在轨 (已飞行7627 天)
发射日期:
2005-10-27 UTC
国别 :
德国 (DE)
星等 :
--
该卫星已列入 空间交会检测服务 Space Conjunction Data Service (SCDS) ,当前飞行风险评估等级: 高风险
轨道信息
数据来源 国际轨道数据
星历时间: 2026-09-14T00:33:16+0800
14小时前
查看轨道信息
半长轴: 7031.879km
偏心率: 0.0012512
轨道倾角: 98.319°
近地点辐角 291.623°
升交点赤经 54.831°
平近点角 68.365°
近地点: 644.943km
远地点: 662.541km
周期: 97.806分钟
每日圈数: 14.722981
详细信息
使用方式:
暂无
2D轨道图
3D轨道图
轨道高度分析图
轨道倾角分析图
轨道综合分析图
查看轨道综合分析图
交会数据列表
事件ID 空间交会对象 最接近时刻(TCA) 交会距离 交会风险概率(CRP) 交会风险指数(CRI) 操作
CDM_260916-054502-889203-502522
UWE-1 (28892)
2026-09-16T
05:45:25+0000
2.337 km
极远距离
2.016229E-6 低风险 0.41
CDM_260916-044002-889203-679823
UWE-1 (28892)
ALSAT 2A (36798)
2026-09-16T
04:40:00+0000
2.517 km
极远距离
1.72542E-6 低风险 0.4
CDM_260914-065302-889206-078328
UWE-1 (28892)
2026-09-14T
06:53:04+0000
2.882 km
极远距离
1.395691E-6 低风险 0.38
与全量物体交会距离演化趋势 订阅飞行安全评估服务
与全量物体交会风险概率演化趋势 订阅飞行安全评估服务